Starlink 35543

operational
NORAD ID: 66202 Int'l Des: 2025-243 Owner: SPXS Country: US Constellation: starlink
LEOCIRCULAR

About Starlink 35543

Description loading...

Live Position

Loading 3D Globe...

Upcoming Passes

Altitude History

Altitude vs Time

uPlot chart will show altitude changes over time

Two-Line Element Set

1 66202C 25243AA 25299.73381944 .00932400 00000+0 15092-2 0 2997
2 66202 53.1579 157.0831 0008798 275.5994 7.7263 16.01705987 16
Epoch: Oct 26, 2025 • Age: 117 hours

Current Status

Altitude 252.0 km
Velocity 7.76 km/s
Sub-Earth Point 47.63°N, 160.72°W
Launch Date Oct 26, 2025
Age 4 days
Type internet

Technical Details

Classification Payload
Mass 575.00 kg
Dry Mass 530.00 kg
Total Mass 575.00 kg
Length 0.30 m
Diameter 4.10 m
Span 29.00 m
Shape Box + pan
Manufacturer SPXS
Bus Type Starlink V2MO
Phase Status In Orbit
Owner/State SPXS/US

Large Constellations

Loading constellations...